TimeICT,TemperatureF,Dew PointF,Humidity,Sea Level PressureIn,VisibilityMPH,Wind Direction,Wind SpeedMPH,Gust SpeedMPH,PrecipitationIn,Events,Conditions,WindDirDegrees,DateUTC
12:00 AM,84.2,75.2,74,29.86,3.7,Calm,Calm,-,N/A,,Mostly Cloudy,0,2013-10-09 17:00:00
12:30 AM,82.4,75.2,79,29.86,3.7,West,5.8,-,N/A,,Mostly Cloudy,260,2013-10-09 17:30:00
1:00 AM,83,75,71,29.86,4,West,5.8,,,,Mist,260,2013-10-09 18:00:00
1:00 AM,82.4,75.2,79,29.86,3.7,West,5.8,-,N/A,,Mostly Cloudy,260,2013-10-09 18:00:00
1:30 AM,82.4,75.2,79,29.83,3.7,West,4.6,-,N/A,,Mostly Cloudy,260,2013-10-09 18:30:00
2:00 AM,82.4,75.2,79,29.83,3.7,WSW,5.8,-,N/A,,Mostly Cloudy,250,2013-10-09 19:00:00
2:30 AM,80.6,75.2,84,29.83,3.7,West,3.5,-,N/A,,Mostly Cloudy,270,2013-10-09 19:30:00
3:00 AM,80.6,75.2,84,29.83,3.7,West,4.6,-,N/A,,Mostly Cloudy,270,2013-10-09 20:00:00
3:30 AM,80.6,75.2,84,29.83,3.7,West,6.9,-,N/A,,Mostly Cloudy,260,2013-10-09 20:30:00
4:00 AM,80.6,75.2,84,29.83,3.7,WNW,3.5,-,N/A,,Mostly Cloudy,290,2013-10-09 21:00:00
4:30 AM,80.6,75.2,84,29.83,3.7,WNW,2.3,-,N/A,,Mostly Cloudy,300,2013-10-09 21:30:00
5:00 AM,80.6,75.2,84,29.83,3.7,SW,2.3,-,N/A,,Mostly Cloudy,220,2013-10-09 22:00:00
5:30 AM,80.6,75.2,84,29.86,3.7,SSW,2.3,-,N/A,,Mostly Cloudy,200,2013-10-09 22:30:00
6:00 AM,80.6,75.2,84,29.86,3.1,NW,3.5,-,N/A,,Mostly Cloudy,320,2013-10-09 23:00:00
6:30 AM,80.6,75.2,84,29.86,3.1,NW,3.5,-,N/A,,Mostly Cloudy,310,2013-10-09 23:30:00
7:00 AM,81,75,77,29.88,3,WSW,3.5,,,,Mist,250,2013-10-10 00:00:00
7:00 AM,80.6,75.2,84,29.86,3.1,WSW,3.5,-,N/A,,Mostly Cloudy,250,2013-10-10 00:00:00
7:30 AM,80.6,75.2,84,29.89,3.7,NNW,3.5,-,N/A,,Mostly Cloudy,330,2013-10-10 00:30:00
8:00 AM,80.6,75.2,84,29.89,3.7,WNW,2.3,-,N/A,,Mostly Cloudy,290,2013-10-10 01:00:00
8:30 AM,82.4,75.2,79,29.89,3.7,Calm,Calm,-,N/A,,Mostly Cloudy,0,2013-10-10 01:30:00
9:00 AM,82.4,75.2,79,29.92,3.7,Calm,Calm,-,N/A,,Mostly Cloudy,0,2013-10-10 02:00:00
9:30 AM,84.2,75.2,74,29.92,4.3,Calm,Calm,-,N/A,,Mostly Cloudy,0,2013-10-10 02:30:00
10:00 AM,84.2,77.0,79,29.92,5.0,ENE,3.5,-,N/A,,Mostly Cloudy,60,2013-10-10 03:00:00
10:30 AM,86.0,75.2,70,29.89,5.0,SSE,2.3,-,N/A,,Mostly Cloudy,160,2013-10-10 03:30:00
11:00 AM,89.6,73.4,59,29.89,6.2,ENE,3.5,-,N/A,,Mostly Cloudy,70,2013-10-10 04:00:00
11:30 AM,89.6,73.4,59,29.89,6.2,ENE,2.3,-,N/A,,Mostly Cloudy,60,2013-10-10 04:30:00
12:00 PM,93.2,73.4,52,29.86,6.2,NNW,3.5,-,N/A,,Mostly Cloudy,330,2013-10-10 05:00:00
12:30 PM,93.2,73.4,52,29.86,6.2,NE,6.9,-,N/A,,Mostly Cloudy,40,2013-10-10 05:30:00
1:00 PM,92,73,44,29.85,6,East,6.9,,,,Partly Cloudy,80,2013-10-10 06:00:00
1:00 PM,91.4,73.4,55,29.83,6.2,East,6.9,-,N/A,,Mostly Cloudy,80,2013-10-10 06:00:00
1:30 PM,91.4,71.6,52,29.83,6.2,East,6.9,-,N/A,,Mostly Cloudy,100,2013-10-10 06:30:00
2:00 PM,91.4,69.8,49,29.80,6.2,SSE,6.9,-,N/A,,Mostly Cloudy,150,2013-10-10 07:00:00
2:30 PM,91.4,69.8,49,29.80,6.2,East,4.6,-,N/A,,Mostly Cloudy,90,2013-10-10 07:30:00
3:00 PM,89.6,71.6,55,29.80,6.2,South,3.5,-,N/A,,Mostly Cloudy,190,2013-10-10 08:00:00
3:30 PM,89.6,75.2,62,29.80,6.2,WSW,8.1,-,N/A,,Mostly Cloudy,250,2013-10-10 08:30:00
4:00 PM,89.6,75.2,62,29.77,6.2,West,8.1,-,N/A,,Mostly Cloudy,260,2013-10-10 09:00:00
4:30 PM,87.8,75.2,66,29.77,6.2,WSW,5.8,-,N/A,,Mostly Cloudy,250,2013-10-10 09:30:00
5:00 PM,86.0,75.2,70,29.77,6.2,SW,5.8,-,N/A,,Mostly Cloudy,230,2013-10-10 10:00:00
5:30 PM,86.0,75.2,70,29.80,6.2,WSW,5.8,-,N/A,,Mostly Cloudy,240,2013-10-10 10:30:00
6:00 PM,86.0,75.2,70,29.80,5.0,SSW,4.6,-,N/A,,Mostly Cloudy,200,2013-10-10 11:00:00
6:30 PM,86.0,75.2,70,29.80,5.0,SW,3.5,-,N/A,,Mostly Cloudy,230,2013-10-10 11:30:00
7:00 PM,86,76,66,29.82,4,WSW,3.5,,,,Mist,240,2013-10-10 12:00:00
7:00 PM,86.0,77.0,74,29.80,4.3,WSW,3.5,-,N/A,,Mostly Cloudy,240,2013-10-10 12:00:00
7:30 PM,86.0,75.2,70,29.83,4.3,WNW,2.3,-,N/A,,Mostly Cloudy,290,2013-10-10 12:30:00
8:00 PM,84.2,77.0,79,29.83,4.3,NW,3.5,-,N/A,,Mostly Cloudy,320,2013-10-10 13:00:00
8:30 PM,84.2,75.2,74,29.86,4.3,West,3.5,-,N/A,,Mostly Cloudy,280,2013-10-10 13:30:00
9:00 PM,84.2,75.2,74,29.86,4.3,WSW,3.5,-,N/A,,Mostly Cloudy,240,2013-10-10 14:00:00
9:30 PM,84.2,75.2,74,29.86,4.3,West,3.5,-,N/A,,Mostly Cloudy,280,2013-10-10 14:30:00
10:00 PM,84.2,75.2,74,29.86,4.3,NW,3.5,-,N/A,,Mostly Cloudy,320,2013-10-10 15:00:00
10:30 PM,84.2,75.2,74,29.89,4.3,NW,3.5,-,N/A,,Mostly Cloudy,310,2013-10-10 15:30:00
11:00 PM,84.2,75.2,74,29.89,4.3,West,4.6,-,N/A,,Mostly Cloudy,260,2013-10-10 16:00:00
11:30 PM,82.4,75.2,79,29.89,3.7,West,3.5,-,N/A,,Mostly Cloudy,270,2013-10-10 16:30:00